Погода Сегян-Кюель

Погода Сегян-Кюель : погода сейчас, прогноз погоды и архив. Всё, что Вы хотите узнать о погоде Сегян-Кюель!

Поиск расширенной информации на нашем сайте:

Другие новости

Новости СМИ2

Главная страница сайта

Новости сайта

03.07.2017

Напоминаем, что на нашем специализированном сайте Метеоцентр.Азия вы можете получить высокодетализированные автоматические прогнозы погоды по пунктам России, СНГ и мира в авиационном формате (включающие направление и скорость ветра, видимость, явления погоды, количество и форму облачности, нижнюю и верхнюю границу облачности).

Рекомендуем: недорогая финская сауна

Погода Сегян-Кюель - сегодня

Время (UTC), дата Ветер
(°,м/с) 
Видим.   Явления Облачность Т
(°С)
Тd
(°С)
f(%) Тe
(°С)
Pmin
(гПа)
dP
(гПа)
Po
(мм)
O2
(г/м3)
Тmin Tmax R s Состояние
почвы
21 20.02.18 тихо ()   20000 м  туман на расстоянии  6/0 верхняя 
[Ci fib]
-42.7 -46.2 68 -43  1019.9  0.2  742  356           
03 21.02.18 270 (З) 20000 м    1/0 верхняя 
[Ci fib]
-32.8 -37.2 65 -34  1019.2  0.1  742  342           
06 21.02.18 270 (З) 20000 м    6/0 верхняя 
[Ci fib]
-29.2 -34.5 60 -33  1018.8  0.1  742  337           
09 21.02.18 270 (З) 20000 м    1/0 верхняя 
[Ci fib]
-32.6 -36.2 70 -33  1020.6  1.3  743  342           
15 21.02.18 010 (С) 20000 м    10/0 верхняя 
[Cs]
-41.3 -44.4 72 -43  1022.9  0.4  744  355           
18 21.02.18 320 (СЗ) 20000 м    4/0 верхняя 
[Ci fib]
-43 -46.2 70 -44  1023.5  0.3  744  358           
21 21.02.18 тихо ()   20000 м    ясно 
-44.2 -47.6 69 -44  1024.4  0.7  745  360           
00 22.02.18 тихо ()   20000 м  туман на расстоянии  3/0 верхняя 
[Ci fib]
-44.3 -47.6 69 -44  1025.3  -0.9  746  361  -46.7      37  неравномерный
сухой снег
100% 
03 22.02.18 270 (З) 20000 м    ясно 
-31.7 -36.2 64 -33  1023.9  0.1  746  342           
06 22.02.18 тихо ()   20000 м    ясно 
-28.5 -34 59 -29  1023.9  0.4  746  337           
09 22.02.18 тихо ()   20000 м    ясно 
-32.8 -37.2 65 -33  1025  0.6  746  344           
12 22.02.18 тихо ()   20000 м    ясно 
-39.2 -42.5 71 -39  1027.5  1.7  748  354    -28       
15 22.02.18 тихо ()   20000 м    ясно 
-41.6 -45 69 -42  1028.2  0.3  748  358           
18 22.02.18 тихо ()   20000 м    ясно 
-43.2 -46.2 72 -43  1029.4  0.9  749  360           
21 22.02.18 тихо ()   20000 м    ясно 
-43.8 -46.9 71 -44  1030.5  749  362           
00 23.02.18 тихо ()   20000 м    3/0 верхняя 
[Ci fib]
-43.6 -46.9 70 -44  1032.1  1.6  750  362  -44.4      37  неравномерный
сухой снег
100% 
03 23.02.18 тихо ()   20000 м    3/0 верхняя 
[Ci fib]
-31.7 -35.5 69 -32  1031.1  0.6  751  344           
06 23.02.18 тихо ()   20000 м    8/0 верхняя 
[Ci fib]
-25.9 -31.5 59 -26  1030.8  0.4  751  336           
09 23.02.18 тихо ()   20000 м    10/0 средняя, верхняя 
[Ac trans|Ci ing]
-28.5 -32.4 69 -29  1032.7  1.4  752  340           
15 23.02.18 340 (С) 20000 м    5/0 средняя, верхняя 
[Ac trans|Ci fib]
-39.1 -42.5 70 -40  1035.7  0.3  754  356           
18 23.02.18 160 (Ю) 20000 м    3/0 верхняя 
[Ci fib]
-41.1 -44.4 70 -42  1036.3  0.3  754  360           
21 23.02.18 тихо ()   20000 м    ясно 
-43.2 -46.2 72 -43  1037  0.5  754  363           
03 24.02.18 240 (ЮЗ) 20000 м    ясно 
-29.1 -33.7 64 -30  1034.9  -0.6  754  342           
06 24.02.18 260 (З) 20000 м    ясно 
-24.1 -29.8 59 -25    -0.3  754  335           
09 24.02.18 280 (З) 20000 м    ясно 
-28 -31.9 69 -29  1035.1  0.6  754  340           
Время (UTC), дата Ветер
(°,м/с) 
Видим.   Явления Облачность Т
(°С)
Тd
(°С)
f(%) Тe
(°С)
Pmin
(гПа)
dP
(гПа)
Po
(мм)
O2
(г/м3)
Тmin Tmax R s Состояние
почвы

Для получения пояснительной информации подведите курсор к названию столбца.

ПОГОДА Сегян-Кюель - архив

Всё, что Вы хотите узнать о погоде Сегян-Кюель - удобно и подробно!

Выберите нужную дату (начиная с 1 января 2015* года) и нажмите кнопку "Найти".
Будут отображены архивные сводки погоды по пункту Сегян-Кюель, начиная с указанной даты.


Отображать данные в формате CSV (для использования в таблицах Excel)


Внимание! Наш архив погоды предназначен исключительно для личного некоммерческого использования в познавательных целях. Если Вам необходимы официальные справки о состоянии погоды (для производственных, юридических, коммерческих и т.п. целей), обращайтесь в органы Росгидромета.

*Примечание: данная дата относится к архиву по метеостанциям СССР (Россия, СНГ, Балтия).
Архив по метеостанциям Зарубежной Европы и Азии (кроме Китая) хранится 10 дней, по другим регионам земного шара (Китай, Африка, Америка, Австралия, Океания) - 1 день.

Сегян-Кюель - район местоположения метеостанции


Название, широта, долгота, высота метеостанции:
Сегян-Кюель 64.00°ш. 130.30°д. 211 м над ур. моря [Российская Федерация]

Дополнительная информация

В oтличие oт бoльшинства пoгoдных сайтoв мы публикуем пoдрoбную метеoинфoрмацию в детальнoм прoфессиoнальнoм фoрмате.

Характеристики температуры и влажнoсти вoздуха измеряются на высoте 2 м в тени вдали oт зданий и деревьев.
Скoрoсть ветра измеряется на высoте 10 м (на урoвне рoста челoвека скoрoсть ветра ниже в 1.5-2 раза). Если метеoстанция нахoдится в гoрoде или в лесу, тo скoрoсть ветра занижена на 2-4 м/с пo сравнению с oткрытым местoм. Скoрoсть ветра над акватoриями крупных рек и oзёр, а также на вершинах хoлмoв на 2-5 м/с выше, чем в oбычных услoвиях.
Атмoсфернoе давление в разных тoчках местнoсти мoжет значительнo oтличаться oт давления на метеoстанции, в зависимoсти oт услoвий рельефа (при пoдъёме на 10 м давление пoнижается примернo на 1 мм рт.ст.).